Regional Weather Roundup
Issued by NWS

Home | Current Version | Previous Version | Graphics & Text | Print | Product List | Glossary On
Versions: 1 2 3 4 5 6 7 8 9 10 11 12 13 14 15 16 17 18 19 20 21 22 23 24 25 26 27 28 29 30 31 32 33 34 35 36 37 38 39 40 41 42 43 44 45 46 47 48 49 50
486
ASUS44 KJAN 241603
RWRMS

MISSISSIPPI HOURLY WEATHER ROUNDUP
NATIONAL WEATHER SERVICE JACKSON MS
1100 AM CDT THU APR 24 2014

NOTE: "FAIR: INDICATES FEW OR NO CLOUDS BELOW 12,000 FEET WITH NO
SIGNIFICANT WEATHER AND/OR OBSTRUCTIONS TO VISIBILITY.

MSZ001>002-007>008-010>013-018>021-025>028-034>036-241700-
NORTHWEST MISSISSIPPI

CITY           SKY/WX    TMP DP  RH WIND       PRES   REMARKS
CLARKSDALE       N/A     73  52  46 S12       29.90S
CLEVELAND      FAIR      73  60  63 S9        29.91R
GREENWOOD      MOSUNNY   76  56  49 S8        29.91F
GREENVILLE     MOSUNNY   75  61  61 S5        29.90R
GRENADA        FAIR      75  52  43 S9        29.92F
OLIVE BRANCH   CLOUDY    70  48  46 S12G18    29.91F
OXFORD         FAIR      73  46  38 S7G17     29.93F
TUNICA         PTSUNNY   72  50  46 S14       29.90S
$$

MSZ003>006-009-014>017-022>024-029>033-037>039-241700-
NORTHEAST MISSISSIPPI

CITY           SKY/WX    TMP DP  RH WIND       PRES   REMARKS
BELMONT        FAIR      75  46  35 S12G17    29.95F
COLUMBUS AFB   SUNNY     77  46  33 S8        29.95F
CORINTH        FAIR      72  45  37 S10       29.93F
GOLDN TRIANGLE SUNNY     73  48  40 S10       29.99F
STARKVILLE     FAIR      73  50  43 SE9       29.96F
TUPELO         MOSUNNY   74  48  39 S12       29.94F
$$

MSZ040-058-241700-
CENTRAL MISSISSIPPI

CITY           SKY/WX    TMP DP  RH WIND       PRES   REMARKS
JACKSON INTL   MOSUNNY   78  61  55 S8        29.94F
JACKSON HAWKNS SUNNY     78  60  53 SE7G17    29.94F
MERIDIAN KEY   PTSUNNY   78  59  51 S8        29.97F
MERIDIAN NAS   PTSUNNY   77  60  55 VRB3      29.97F
RAYMOND        FAIR      77  72  83 S8        29.93F
VICKSBURG      SUNNY     76  61  59 S14G20    29.92F
$$

MSZ059>079-241700-
SOUTH MISSISSIPPI

CITY           SKY/WX    TMP DP  RH WIND       PRES   REMARKS
BROOKHAVEN     FAIR      75  64  69 S9        29.98F
HATTIESBURG    MOSUNNY   79  62  56 VRB7      29.99S
MCCOMB         SUNNY     74  62  66 S8        29.99R
NATCHEZ        MOSUNNY   73  64  73 S10       29.94S
PINE BELT      MOSUNNY   75  63  64 SW7       30.00S
$$

MSZ080>082-241700-
COASTAL MISSISSIPPI

CITY           SKY/WX    TMP DP  RH WIND       PRES   REMARKS
BAY ST LOUIS   PTSUNNY   66  52  59 SE6       29.99F
BILOXI         MOSUNNY   76  65  70 S6        30.00S HAZE
PASCAGOULA     MOSUNNY   76  65  68 VRB6      30.00R
GULFPORT       MOSUNNY   78  64  61 SE9       29.99S
$$



USA.gov is the U.S. government's official web portal to all federal, state and local government web resources and services.